Retour au catalogue

SL-12 DEB

ActifLEO
NORAD 18765·DEBRIS·🇷🇺 Russia

Lancé May 30, 1985 depuis Baikonur Cosmodrome

Loading…

Prochains Passages (prochaines 24 heures)

TLE

FraisSource: Space-Track

Époque: Sep 14, 2026, 17:16 UTC

1 18765U 85042H   26257.71979613  .00002044  00000-0  42432-3 0  9999
2 18765  66.5731 154.2693 0007523 294.2412  65.7915 14.62251677 28361

Suivez SL-12 DEB en temps réel avec AllMySat

Download on the App Store